Find Starlink 2569

NORAD ID: 48277 Int'l Des: 2021-036 Owner: SPXS Country: US Constellation: starlink operational
LEOCIRCULARSTARLINK_TYPE

实时位置

正在加载3D地球...

关于 Starlink 2569

正在加载描述...

即将过境

Passes for default location (London). Set your location on the main map for personalized predictions.

高度历史

Loading altitude history...

两行轨道根数

1 48277U 21036B 26124.66601205 .00041841 00000-0 14979-2 0 9991
2 48277 53.1242 112.3512 0006069 50.0416 310.1116 15.28372789277853
Epoch: May 4, 2026 • Age: 32 hours

当前状态

高度 483.7 km
速度 7.63 km/s
星下点 52.56°N, 11.59°W
发射日期 Apr 29, 2021
运行时间 5 years
类型 internet

技术详情

分类 Payload
质量 260.00 kg
干质量 248.00 kg
总质量 260.00 kg
长度 0.20 m
直径 2.80 m
跨度 9.00 m
形状 Box + pan
制造商 SPXS
平台类型 Starlink
阶段状态 In Orbit
所有者/国家 SPXS/US

Most Searched